This demonstration page uses our WeatherBlox Daily Observations layout. Learn more.

Hourly Observations for January 11, 2015

Temp ( °F °C ) Dew Point ( °F °C ) Humidity (%) Winds ( mph kmh ) Pressure ( in mb ) Visibility ( mi km ) Precip ( " mm )
12:15 am 00:15 Clear 22 -5.5 20 -6.8 91 91 ENE 6 9 30.15 1021 10 16.0934 0 0
12:35 am 00:35 Clear 22 -5.5 20 -6.7 91 91 NE 6 9 30.15 1021 10 16.0934 0 0
12:55 am 00:55 Clear 22 -5.6 20 -6.8 91 91 ENE 7 11 30.15 1021 10 16.0934 0 0
1:15 am 01:15 Clear 22 -5.6 20 -6.7 92 92 NE 8 13 30.15 1021 10 16.0934 0 0
1:35 am 01:35 Clear 21 -6 19 -7.3 91 91 NE 9 15 30.15 1021 10 16.0934 0 0
1:55 am 01:55 Clear 21 -6 18 -7.6 89 89 NE 10 17 30.15 1021 10 16.0934 0 0
2:15 am 02:15 Clear 20 -6.5 17 -8.2 88 88 NE 8 13 30.15 1021 10 16.0934 0 0
2:35 am 02:35 Clear 19 -7.1 16 -8.7 89 89 NE 6 9 30.18 1022 10 16.0934 0 0
2:55 am 02:55 Clear 19 -7.5 16 -9.1 88 88 NE 7 11 30.18 1022 10 16.0934 0 0
3:15 am 03:15 Clear 18 -7.7 15 -9.3 88 88 NE 7 11 30.18 1022 10 16.0934 0 0
3:35 am 03:35 Clear 18 -8 15 -9.5 89 89 NE 7 11 30.18 1022 10 16.0934 0 0
3:55 am 03:55 Clear 17 -8.2 14 -9.8 88 88 NE 8 13 30.18 1022 10 16.0934 0 0
4:15 am 04:15 Clear 17 -8.5 14 -10 89 89 NE 8 13 30.18 1022 10 16.0934 0 0
4:35 am 04:35 Clear 16 -8.7 13 -10.3 88 88 NE 9 15 30.18 1022 10 16.0934 0 0
4:55 am 04:55 Clear 16 -9 13 -10.6 88 88 NE 8 13 30.18 1022 10 16.0934 0 0
5:15 am 05:15 Clear 16 -9.1 13 -10.7 88 88 NE 8 13 30.15 1021 10 16.0934 0 0
5:35 am 05:35 Clear 15 -9.5 12 -11 89 89 NNE 6 9 30.15 1021 10 16.0934 0 0
5:55 am 05:55 Clear 15 -9.6 12 -11.2 88 88 NE 8 13 30.18 1022 10 16.0934 0 0
6:15 am 06:15 Clear 14 -10 11 -11.5 89 89 NE 5 7 30.18 1022 10 16.0934 0 0
6:35 am 06:35 Clear 14 -10 11 -11.6 88 88 NE 6 9 30.18 1022 10 16.0934 0 0
6:55 am 06:55 Clear 14 -10.2 11 -11.7 89 89 NE 6 9 30.18 1022 10 16.0934 0 0
7:15 am 07:15 Clear 13 -10.5 10 -12 89 89 NNE 6 9 30.18 1022 10 16.0934 0 0
7:35 am 07:35 Clear 13 -10.5 10 -12 89 89 NNE 5 7 30.18 1022 10 16.0934 0 0
7:55 am 07:55 Clear 13 -10.5 10 -12.1 88 88 NNE 5 7 30.18 1022 10 16.0934 0 0
8:15 am 08:15 Sunny 13 -10.7 10 -12.2 89 89 NE 5 7 30.21 1023 10 16.0934 0 0
8:35 am 08:35 Sunny 13 -10.4 10 -12 88 88 ENE 5 7 30.21 1023 10 16.0934 0 0
8:55 am 08:55 Sunny 14 -9.8 11 -11.5 88 88 NE 6 9 30.21 1023 10 16.0934 0 0
9:15 am 09:15 Sunny 15 -9.5 12 -11 89 89 NE 6 9 30.18 1022 10 16.0934 0 0
9:35 am 09:35 Sunny 16 -8.9 13 -10.6 88 88 ENE 6 9 30.18 1022 10 16.0934 0 0
9:55 am 09:55 Sunny 17 -8.2 14 -10 87 87 ENE 5 7 30.18 1022 10 16.0934 0 0
10:15 am 10:15 Sunny 19 -7.5 15 -9.2 88 88 E 5 7 30.21 1023 10 16.0934 0 0
10:35 am 10:35 Sunny 20 -6.7 17 -8.6 87 87 E 3 6 30.21 1023 10 16.0934 0 0
10:55 am 10:55 Sunny 21 -6 18 -8 86 86 Calm 30.18 1022 10 16.0934 0 0
11:15 am 11:15 Sunny 23 -5.2 19 -7.5 84 84 NNE 3 6 30.18 1022 10 16.0934 0 0
11:35 am 11:35 Sunny 24 -4.6 19 -7.2 82 82 Calm 30.18 1022 10 16.0934 0 0
11:55 am 11:55 Sunny 25 -3.9 20 -6.9 80 80 NE 3 6 30.18 1022 10 16.0934 0 0
12:15 pm 12:15 Sunny 26 -3.1 20 -6.6 77 77 NNE 3 6 30.12 1020 10 16.0934 0 0
12:35 pm 12:35 Sunny 27 -2.6 20 -6.4 75 75 N 5 7 30.12 1020 10 16.0934 0 0
12:55 pm 12:55 Sunny 28 -2.1 20 -6.6 72 72 NNE 3 6 30.12 1020 10 16.0934 0 0
1:15 pm 13:15 Sunny 29 -1.4 20 -6.4 69 69 NNE 5 7 30.12 1020 10 16.0934 0 0
1:35 pm 13:35 Sunny 31 -0.7 21 -6.1 67 67 NNE 7 11 30.12 1020 10 16.0934 0 0
1:55 pm 13:55 Sunny 31 -0.5 20 -6.7 63 63 NNE 6 9 30.09 1019 10 16.0934 0 0
2:35 pm 14:35 Sunny 32 0 20 -6.5 62 62 N 7 11 30.12 1020 10 16.0934 0 0
2:55 pm 14:55 Sunny 33 0.3 21 -6.2 62 62 NNE 8 13 30.12 1020 10 16.0934 0 0
3:15 pm 15:15 Sunny 32 0.1 21 -6.2 63 63 NE 10 17 30.12 1020 10 16.0934 0 0
3:35 pm 15:35 Mostly Cloudy 32 0 21 -6.1 64 64 NNE 10 17 30.18 1022 10 16.0934 0 0
3:55 pm 15:55 Cloudy 32 -0.1 21 -5.9 65 65 NNE 12 19 30.18 1022 10 16.0934 0 0
4:15 pm 16:15 Cloudy 31 -0.5 21 -6.1 66 66 NE 14 22 30.21 1023 10 16.0934 0 0
4:35 pm 16:35 Mostly Cloudy 30 -1.2 20 -6.5 68 68 NE 13 20 30.21 1023 10 16.0934 0 0
4:55 pm 16:55 Mostly Cloudy 29 -1.8 20 -6.6 70 70 NNE 13 20 30.24 1024 10 16.0934 0 0
5:15 pm 17:15 Partly Cloudy 28 -2.5 20 -6.9 72 72 NNE 15 24 30.24 1024 10 16.0934 0 0
5:35 pm 17:35 Clear 27 -3 19 -7.1 74 74 NNE 14 22 30.27 1025 10 16.0934 0 0
5:55 pm 17:55 Clear 26 -3.5 19 -7 77 77 NNE 13 20 30.3 1026 10 16.0934 0 0
6:15 pm 18:15 Clear 26 -3.6 19 -7.1 77 77 NNE 16 26 30.3 1026 10 16.0934 0 0
6:35 pm 18:35 Partly Cloudy 25 -4.1 18 -7.7 76 76 NNE 20 31 30.33 1027 10 16.0934 0 0
6:55 pm 18:55 Cloudy 24 -4.6 16 -9 72 72 NNE 20 31 30.36 1028 10 16.0934 0 0
7:15 pm 19:15 Cloudy 23 -4.8 16 -9 73 73 NNE 14 22 30.36 1028 10 16.0934 0 0
7:35 pm 19:35 Cloudy 22 -5.7 15 -9.5 75 75 N 17 28 30.39 1029 10 16.0934 0 0
7:55 pm 19:55 Partly Cloudy 20 -6.5 15 -9.5 80 80 NNE 17 28 30.39 1029 10 16.0934 0 0
8:15 pm 20:15 Clear 20 -6.9 15 -9.7 81 81 NNE 17 28 30.42 1030 10 16.0934 0 0
8:35 pm 20:35 Mostly Cloudy 19 -7.1 15 -9.7 82 82 N 16 26 30.48 1032 10 16.0934 0 0
8:55 pm 20:55 Partly Cloudy 18 -7.7 13 -10.6 80 80 N 13 20 30.48 1032 10 16.0934 0 0
9:15 pm 21:15 Clear 18 -8 12 -11.2 78 78 N 18 30 30.48 1032 10 16.0934 0 0
9:35 pm 21:35 Partly Cloudy 17 -8.3 11 -11.7 77 77 N 16 26 30.5 1033 10 16.0934 0 0
9:55 pm 21:55 Partly Cloudy 17 -8.4 11 -11.6 78 78 NNE 15 24 30.5 1033 10 16.0934 0 0
10:15 pm 22:15 Partly Cloudy 17 -8.6 10 -12.2 75 75 N 17 28 30.5 1033 10 16.0934 0 0
10:35 pm 22:35 Mostly Cloudy 17 -8.6 9 -13 71 71 N 17 28 30.53 1034 10 16.0934 0 0
10:55 pm 22:55 Cloudy 17 -8.5 9 -12.9 71 71 N 16 26 30.53 1034 10 16.0934 0 0
11:15 pm 23:15 Cloudy 16 -8.8 7 -14 66 66 N 17 28 30.53 1034 10 16.0934 0 0
11:35 pm 23:35 Mostly Cloudy 15 -9.2 8 -13.5 71 71 N 13 20 30.53 1034 10 16.0934 0 0
11:55 pm 23:55 Mostly Cloudy 15 -9.5 8 -13.5 73 73 N 15 24 30.53 1034 10 16.0934 0 0

Powered by AerisWeather